Station: Sunshine Coast Airport  

  Atmospheric Gas Attenuation - ITU Rec 676-11   ----------------- dB/100km -----------------
Date Time Temp RH % AH g/m3 Dew Point Wind Direction Speed kph Gust kph Barometer mB Rainfall Since 9am 24GHz 47GHz 76GHz 122GHz 134GHz 241GHz
05/05 17:30 22.7 82 16.57 19.5 9 13 1015.6 0.2 36.0 36.6 68.2 180.2 194.6 675.2
05/05 17:20 22.7 82 16.57 19.5 9 9 1015.8 0.2 36.0 36.7 68.2 180.3 194.6 675.3
05/05 17:10 22.8 81 16.46 19.4 9 11 1015.9 0.2 35.8 36.4 67.6 178.7 192.7 668.8
05/05 17:00 22.9 81 16.55 19.5 11 15 1015.7 0.2 35.9 36.5 67.9 179.5 193.8 672.5
05/05 16:50 23 80 16.44 19.4 9 11 1015.6 0.2 35.7 36.3 67.3 178.0 191.8 665.8
05/05 16:40 23.2 80 16.63 19.6 11 15 1015.7 0.2 36.1 36.5 68.0 179.8 194.2 674.0
05/05 16:30 23.2 80 16.63 19.6 15 19 1015.4 0.2 36.1 36.5 68.0 179.8 194.1 673.8
05/05 16:20 23.3 80 16.73 19.7 13 17 1015.6 0.2 36.3 36.7 68.4 180.8 195.4 678.2
05/05 16:10 23.3 79 16.52 19.5 15 17 1015.5 0.2 35.8 36.3 67.4 178.2 192.3 667.3
05/05 16:00 23.3 78 16.31 19.2 13 17 1015.5 0.2 35.4 35.9 66.5 175.7 189.1 656.5
05/05 15:50 23.4 78 16.4 19.3 13 13 1015.5 0.2 35.6 36.0 66.8 176.5 190.2 660.2
05/05 15:40 23.5 78 16.49 19.4 15 17 1015.4 0.2 35.8 36.1 67.1 177.4 191.3 664.0
05/05 15:30 23.6 77 16.38 19.3 13 17 1015.5 0.2 35.5 35.9 66.5 175.8 189.4 657.5
05/05 15:20 23.7 77 16.47 19.4 15 17 1015.3 0.2 35.7 36.0 66.8 176.6 190.5 661.2
05/05 15:10 23.8 77 16.56 19.5 13 17 1015.3 0.2 35.9 36.1 67.2 177.5 191.5 664.9
05/05 15:00 23.9 77 16.66 19.6 15 19 1015 0.2 36.1 36.3 67.5 178.4 192.7 669.0
05/05 14:50 23.9 76 16.44 19.4 15 19 1015.2 0.2 35.6 35.9 66.5 175.8 189.5 657.8
05/05 14:40 24 74 16.1 19.1 15 19 1015.1 0.2 34.9 35.2 64.9 171.5 184.3 639.7
05/05 14:30 24.1 75 16.41 19.4 13 19 1015 0.2 35.5 35.7 66.2 175.0 188.5 654.5
05/05 14:20 23.9 73 15.79 18.8 15 17 1015.2 0.2 34.2 34.7 63.6 168.1 180.0 624.9
05/05 14:10 24.2 75 16.5 19.5 15 17 1015.3 0.2 35.7 35.9 66.5 175.9 189.7 658.4
05/05 14:00 24 75 16.32 19.3 17 20 1015 0.2 35.4 35.6 65.9 174.1 187.5 650.8
05/05 13:50 24.7 75 16.98 20 13 15 1015.3 0.2 36.7 36.5 68.3 180.4 195.4 678.6
05/05 13:40 24.3 76 16.82 19.8 13 17 1015 0.2 36.4 36.4 67.9 179.4 194.1 673.7
05/05 13:30 24.1 76 16.63 19.6 15 20 1015.1 0.2 36.0 36.1 67.2 177.6 191.8 665.8
05/05 13:20 24.2 74 16.28 19.3 17 19 1015.3 0.2 35.2 35.5 65.6 173.2 186.4 647.2
05/05 13:10 24.5 72 16.11 19.1 15 17 1015.4 0.2 34.9 35.0 64.6 170.6 183.3 636.1
05/05 13:00 25.2 72 16.76 19.8 17 20 1015.3 0.2 36.2 35.9 66.8 176.7 190.9 663.0
05/05 12:50 24.6 72 16.2 19.2 19 20 1015.3 0.2 35.0 35.2 64.9 171.4 184.3 639.8
05/05 12:40 24.7 70 15.84 18.9 20 20 1015.5 0.2 34.3 34.5 63.2 167.0 178.9 621.0
05/05 12:30 24.4 71 15.8 18.8 19 24 1015.3 0.2 34.2 34.5 63.3 167.2 179.0 621.4
05/05 12:20 24.9 69 15.79 19 20 20 1015.7 0.2 34.1 34.3 62.8 166.0 177.8 617.0
05/05 12:10 24.7 71 16.07 19.1 17 19 1016 0.2 34.8 34.9 64.3 169.8 182.3 632.8
05/05 12:00 25.2 72 16.76 19.8 17 20 1016 0.2 36.2 35.9 66.9 176.8 191.0 663.3
05/05 11:50 24.7 72 16.3 19.3 17 20 1016.1 0.2 35.2 35.3 65.3 172.5 185.6 644.4
05/05 11:40 24.3 73 16.15 19.1 20 22 1016.3 0.2 35.0 35.2 65.0 171.6 184.4 640.2
05/05 11:30 24.3 73 16.15 19.1 20 24 1016.2 0.2 35.0 35.2 65.0 171.6 184.4 640.2
05/05 11:20 24.5 73 16.34 19.3 19 22 1016.4 0.2 35.3 35.5 65.6 173.4 186.7 648.2
05/05 11:10 24.5 72 16.11 19.1 19 22 1016.7 0.2 34.9 35.1 64.6 170.8 183.4 636.7
05/05 11:00 24.4 74 16.47 19.5 22 24 1016.8 0.2 35.6 35.8 66.3 175.3 188.9 655.8
05/05 10:50 24.6 72 16.2 19.2 19 22 1017.2 0.2 35.0 35.2 65.0 171.7 184.6 640.7
05/05 10:40 24.8 75 17.07 20.1 19 20 1017.2 0.2 36.9 36.7 68.7 181.6 196.8 683.2
05/05 10:30 25 72 16.57 19.6 17 22 1017.1 0.2 35.8 35.7 66.3 175.1 188.9 655.9
05/05 10:20 24.5 70 15.67 18.7 20 22 1017.3 0.2 33.9 34.3 62.7 165.7 177.2 615.0
05/05 10:10 25.1 70 16.2 19.2 15 19 1017.4 0.2 35.0 35.0 64.6 170.6 183.4 636.6
05/05 10:00 25.1 70 16.2 19.2 15 19 1017.3 0.2 35.0 35.0 64.6 170.6 183.4 636.6
05/05 09:50 24.5 70 15.67 18.7 17 20 1017.5 0 33.9 34.4 62.8 165.7 177.2 615.1
05/05 09:40 24.7 69 15.62 18.6 17 20 1017.5 0 33.8 34.2 62.4 164.7 176.0 611.0
05/05 09:30 24.6 73 16.43 19.4 15 24 1017.5 0 35.5 35.7 66.0 174.4 187.9 652.4
05/05 09:20 24.1 73 15.97 19 13 17 1017.6 0 34.6 35.0 64.4 170.1 182.5 633.4
05/05 09:10 23.9 76 16.44 19.4 20 22 1017.6 0 35.6 36.0 66.7 176.2 189.8 659.0
05/05 09:00 23.5 76 16.07 19 17 22 1017.6 0 34.9 35.5 65.4 172.6 185.4 643.5
05/05 08:50 23.7 79 16.9 19.8 15 19 1017.7 0.4 36.6 36.9 68.9 182.2 197.2 684.5
05/05 08:40 23.3 79 16.52 19.5 15 17 1017.6 0.4 35.8 36.4 67.6 178.5 192.5 668.3
05/05 08:30 23 81 16.65 19.6 15 19 1017.5 0.4 36.1 36.7 68.4 180.8 195.2 677.7
05/05 08:20 22.7 82 16.57 19.5 13 15 1017.6 0.4 36.0 36.7 68.3 180.5 194.8 676.2
05/05 08:10 22.2 83 16.29 19.2 15 17 1017.6 0.4 35.4 36.4 67.5 178.3 191.9 666.0
05/05 08:00 21.9 85 16.4 19.3 15 19 1017.5 0.4 35.7 36.8 68.3 180.3 194.3 674.3
05/05 07:50 21.6 88 16.69 19.5 15 17 1017.6 0.4 36.3 37.4 69.9 184.6 199.5 692.4
05/05 07:40 21.1 92 16.95 19.7 11 13 1017.6 0.4 36.9 38.2 71.6 189.1 204.9 711.0
05/05 07:30 20.7 93 16.74 19.5 9 13 1017.5 0.4 36.5 37.9 70.9 187.5 202.7 703.4
05/05 07:20 20.3 93 16.35 19.1 7 9 1017.4 0.4 35.7 37.4 69.5 183.5 197.7 686.0
05/05 07:10 20.1 93 16.16 18.9 9 9 1017.4 0.4 35.3 37.1 68.7 181.6 195.3 677.6
05/05 07:00 19.8 93 15.88 18.6 7 9 1017.1 0.4 34.8 36.7 67.7 178.8 191.8 665.1
05/05 06:50 19.5 93 15.61 18.3 7 7 1017.1 0.4 34.2 36.3 66.7 176.1 188.4 653.3
05/05 06:40 19.4 93 15.52 18.2 7 9 1017 0.4 34.0 36.2 66.3 175.2 187.3 649.3
05/05 06:30 19.3 93 15.42 18.1 7 9 1016.8 0.4 33.8 36.0 65.9 174.2 185.9 644.8
05/05 06:20 19.5 92 15.44 18.2 7 7 1016.8 0.4 33.9 36.0 65.9 174.0 185.8 644.1
05/05 06:10 19.6 93 15.7 18.4 9 11 1016.6 0.4 34.4 36.4 67.0 176.9 189.4 657.0
05/05 06:00 19.6 92 15.53 18.3 9 11 1016.3 0.4 34.0 36.1 66.2 174.8 186.8 647.8
05/05 05:50 19.8 92 15.71 18.5 9 9 1016.4 0.4 34.4 36.3 66.8 176.6 189.1 655.7
05/05 05:40 19.9 92 15.81 18.6 13 13 1016.3 0.4 34.6 36.5 67.2 177.6 190.3 660.1
05/05 05:30 20 92 15.9 18.7 11 13 1016.2 0.4 34.8 36.6 67.5 178.4 191.4 664.0
05/05 05:20 20.2 92 16.08 18.9 13 13 1016.3 0.4 35.2 36.8 68.2 180.2 193.7 671.9
05/05 05:10 20.4 93 16.45 19.2 11 13 1016.2 0.4 35.9 37.5 69.8 184.4 198.9 689.9
05/05 05:00 20.5 93 16.55 19.3 13 19 1016 0.4 36.2 37.6 70.1 185.3 200.1 694.3
05/05 04:50 20.4 93 16.45 19.2 13 15 1016.1 0.4 35.9 37.5 69.8 184.3 198.8 689.8
05/05 04:40 20.3 94 16.53 19.3 7 7 1016 0.4 36.1 37.6 70.2 185.6 200.3 695.0
05/05 04:30 20.1 94 16.34 19.1 9 11 1015.8 0.2 35.7 37.4 69.5 183.6 197.9 686.5
05/05 04:20 19.9 93 15.98 18.7 9 9 1015.9 0.2 35.0 36.8 68.0 179.6 192.9 669.0
05/05 04:10 20 93 16.07 18.8 9 9 1015.8 0.2 35.2 36.9 68.3 180.5 194.0 672.9
05/05 04:00 20.1 94 16.34 19.1 9 11 1015.8 0.2 35.7 37.4 69.5 183.6 197.9 686.5
05/05 03:50 19.9 93 15.98 18.7 9 9 1015.8 0.2 35.0 36.8 68.0 179.6 192.9 669.0
05/05 03:40 19.8 93 15.88 18.6 11 11 1015.8 0.2 34.8 36.6 67.6 178.6 191.6 664.5
05/05 03:30 19.7 93 15.79 18.5 9 11 1015.7 0.2 34.6 36.5 67.3 177.7 190.5 660.5
05/05 03:20 19.6 93 15.7 18.4 9 9 1015.8 0.2 34.4 36.4 66.9 176.8 189.3 656.6
05/05 03:10 19.7 93 15.79 18.5 9 9 1015.8 0.2 34.6 36.5 67.3 177.7 190.5 660.6
05/05 03:00 19.9 93 15.98 18.7 9 11 1015.6 0.2 35.0 36.8 68.0 179.6 192.8 668.9
05/05 02:50 20 92 15.9 18.7 7 9 1015.7 0.2 34.8 36.6 67.5 178.4 191.4 663.8
05/05 02:40 20.2 92 16.08 18.9 9 9 1015.7 0.2 35.2 36.8 68.2 180.1 193.6 671.6
05/05 02:30 20.2 92 16.08 18.9 7 9 1015.8 0.2 35.2 36.8 68.2 180.1 193.6 671.7
05/05 02:20 20.4 92 16.27 19.1 9 9 1016 0.2 35.6 37.1 68.9 182.1 196.1 680.1
05/05 02:10 20.6 93 16.64 19.4 9 11 1016.1 0.2 36.3 37.7 70.5 186.2 201.2 698.2
05/05 02:00 20.1 92 15.99 18.8 0 2 1016.1 0.2 35.0 36.7 67.9 179.3 192.5 667.9
05/05 01:50 20.1 91 15.82 18.6 0 0 1016.2 0.2 34.6 36.4 67.1 177.2 190.0 658.9
05/05 01:40 20.7 92 16.56 19.4 9 11 1016.2 0.2 36.2 37.5 70.0 185.0 199.8 693.1
05/05 01:30 20.8 92 16.66 19.5 11 13 1016.2 0.2 36.4 37.7 70.4 186.0 201.0 697.5
05/05 01:20 20.8 92 16.66 19.5 9 11 1016.3 0.2 36.4 37.7 70.4 186.0 201.0 697.6
05/05 01:10 20.6 92 16.46 19.3 9 9 1016.4 0.2 36.0 37.4 69.6 184.0 198.5 688.7
05/05 01:00 20.5 92 16.37 19.2 7 9 1016.4 0.2 35.8 37.3 69.3 183.1 197.4 684.8

Last Refresh: 05-May-2026 17:07:31

Bureau of Meteorology